This is the latest recevied weather packets stored in our database for station/object XE2KK-10. If no packets are shown the sender has not sent any weather packets the latest 1 day(s).
| Time | Temp. | Humidity | Pressure | Rain* | Wind** | Luminosity | Snow |
|---|---|---|---|---|---|---|---|
| 1778028853 | 36.11° C | 28% | 1003.7 hPa | 0 mm | 0.89 m/s, 262° | 18 W/m² | - |
| 1778028552 | 36.11° C | 28% | 1003.7 hPa | 0 mm | 1.79 m/s, 334° | 21 W/m² | - |
| 1778028252 | 36.11° C | 28% | 1003.6 hPa | 0 mm | 1.34 m/s, 358° | 23 W/m² | - |
| 1778027953 | 36.67° C | 28% | 1003.5 hPa | 0 mm | 1.34 m/s, 266° | 29 W/m² | - |
| 1778027653 | 37.22° C | 26% | 1003.5 hPa | 0 mm | 2.24 m/s, 263° | 37 W/m² | - |
| 1778027353 | 37.22° C | 26% | 1003.3 hPa | 0 mm | 0.45 m/s, 62° | 48 W/m² | - |
| 1778027053 | 37.22° C | 26% | 1003.2 hPa | 0 mm | 3.58 m/s, 330° | 58 W/m² | - |
| 1778026752 | 37.78° C | 25% | 1003.4 hPa | 0 mm | 2.68 m/s, 301° | 69 W/m² | - |
| 1778026452 | 38.33° C | 23% | 1003.2 hPa | 0 mm | 1.34 m/s, 10° | 81 W/m² | - |
| 1778026153 | 38.33° C | 23% | 1003.3 hPa | 0 mm | 0.89 m/s, 19° | 84 W/m² | - |
| 1778025853 | 38.33° C | 23% | 1003.2 hPa | 0 mm | 0.89 m/s, 246° | 92 W/m² | - |
| 1778025553 | 38.33° C | 23% | 1003.1 hPa | 0 mm | 0.45 m/s, 320° | 94 W/m² | - |
| 1778025253 | 38.89° C | 22% | 1003.2 hPa | 0 mm | 1.34 m/s, 260° | 98 W/m² | - |
| 1778024952 | 40° C | 18% | 1003.2 hPa | 0 mm | 1.34 m/s, 355° | 105 W/m² | - |
| 1778024652 | 40° C | 15% | 1003.1 hPa | 0 mm | 0 m/s | 97 W/m² | - |
| 1778024353 | 40° C | 15% | 1003.1 hPa | 0 mm | 0.45 m/s, 121° | 150 W/m² | - |
| 1778024052 | 39.44° C | 15% | 1003.2 hPa | 0 mm | 0.89 m/s, 121° | 151 W/m² | - |
| 1778023752 | 40° C | 16% | 1003 hPa | 0 mm | 0.45 m/s, 60° | 133 W/m² | - |
| 1778023452 | 40° C | 15% | 1003.1 hPa | 0 mm | 2.24 m/s, 71° | 113 W/m² | - |
| 1778023152 | 40° C | 15% | 1003.2 hPa | 0 mm | 0.89 m/s, 107° | 165 W/m² | - |
| 1778022852 | 40° C | 15% | 1003 hPa | 0 mm | 0.89 m/s, 90° | 223 W/m² | - |
| 1778022553 | 40° C | 16% | 1003.2 hPa | 0 mm | 1.34 m/s, 16° | 220 W/m² | - |
| 1778022262 | 40.56° C | 15% | 1003.3 hPa | 0 mm | 0.89 m/s, 237° | 378 W/m² | - |
| 1778021952 | 40° C | 15% | 1003.2 hPa | 0 mm | 0 m/s | 314 W/m² | - |
| 1778021653 | 40° C | 16% | 1003.1 hPa | 0 mm | 0.45 m/s, 320° | 269 W/m² | - |
* Rain latest hour (hover to see other rain measurements)
** Current wind speed in m/s (hover to see current wind gust speed)